Lid_Strength_Index
2 2 3 3 4 4 3 2 3 3 3 3 3 2 2 2 2 6 8 6 5 1 2 5 8 9 9 11 11 12 16 18 18 17 16 14 14 12 11 12 10 9 9 9 7
1 2 2 3 3 4 4 3 3 3 3 3 3 2 2 2 5 8 4 3 2 2 6 10 11 10 11 12 12 14 17 16 16 16 15 13 14 12 12 12 11 11 9 8 6
-0 1 2 2 2 3 3 3 3 3 3 3 3 2 2 3 9 9 3 3 2 3 6 7 10 10 13 12 14 15 16 15 14 13 13 13 13 12 12 13 11 11 9 9 8
-1 0 1 1 2 2 3 3 3 3 3 3 3 2 1 5 14 8 2 2 1 5 7 10 11 12 14 15 13 15 14 14 13 12 12 13 12 12 12 12 9 9 10 9 9
-0 -0 0 1 2 2 2 3 3 3 3 3 3 2 5 10 10 7 2 3 7 7 10 11 12 12 14 14 13 15 14 13 13 12 12 11 13 12 12 11 9 10 9 9 10
-0 -0 0 0 1 1 1 2 3 3 3 4 3 3 8 13 6 6 6 7 7 9 10 10 11 11 13 13 14 14 13 13 13 13 11 13 13 12 12 10 10 11 10 10 9
0 0 0 0 0 1 1 2 2 2 3 3 4 5 9 12 6 6 7 8 7 8 10 9 10 11 12 13 12 13 15 14 14 13 12 12 15 13 12 10 10 11 11 10 9
1 0 0 -0 0 -0 1 2 2 2 2 3 4 8 13 7 8 6 6 8 7 8 9 8 8 10 12 12 13 15 16 19 16 13 12 14 18 13 11 11 11 11 11 11 10
1 0 0 -0 -0 0 1 1 1 2 2 3 8 9 13 6 9 7 6 8 8 9 9 7 9 12 12 15 18 17 21 19 16 13 13 15 17 14 11 11 11 11 11 12 11
2 1 0 0 -0 -0 0 1 1 2 4 5 8 13 12 12 9 8 7 7 9 10 10 10 12 15 15 18 21 19 19 18 18 15 14 15 15 13 12 11 12 12 11 12 12
2 1 1 0 -0 -1 2 5 9 10 10 12 12 13 11 9 8 8 7 8 9 11 15 13 16 18 16 16 17 17 19 18 18 15 16 16 15 13 13 12 12 12 12 12 12
2 2 2 0 -0 -1 4 6 6 8 9 8 10 11 10 9 12 9 7 10 12 14 15 16 17 15 15 14 16 17 18 19 17 16 16 18 17 14 14 13 11 11 12 12 13
2 2 2 1 -0 1 4 6 6 7 10 9 9 11 11 9 12 12 8 10 12 14 16 17 16 14 14 15 16 18 18 19 20 17 17 17 18 18 14 14 12 12 11 11 12
2 1 1 1 2 3 4 4 5 6 12 11 11 9 9 9 13 10 8 10 12 14 15 16 15 15 16 16 16 18 16 16 17 20 23 19 22 19 17 15 13 12 12 12 13
2 1 1 1 3 4 3 5 5 5 22 10 11 7 8 10 12 11 10 11 14 14 14 16 16 16 17 16 16 17 16 17 18 19 21 21 22 19 17 16 15 13 13 13 14
2 1 1 2 2 2 4 3 3 13 19 13 11 12 12 11 12 11 11 11 12 14 14 15 14 15 16 16 16 15 16 17 19 20 24 22 22 20 19 16 16 14 13 13 14
3 2 2 2 4 3 3 4 14 18 13 15 15 12 13 13 13 13 14 15 17 20 19 16 16 15 15 16 15 17 19 22 24 25 23 22 23 19 17 16 15 14 13 12 15
3 3 3 2 1 3 4 10 17 17 16 12 13 13 15 13 13 13 14 16 14 17 19 19 20 16 15 16 17 18 19 21 24 24 22 21 22 18 16 16 15 14 13 13 16
3 5 5 3 2 3 8 14 16 17 12 13 12 16 16 13 14 14 15 15 14 15 18 19 19 16 16 16 16 17 19 18 21 26 24 22 20 18 17 16 15 15 14 14 16
7 6 6 3 2 5 10 13 15 11 11 11 14 14 18 15 15 15 16 14 15 13 13 16 19 17 16 16 17 18 17 21 21 25 25 22 22 20 18 16 16 16 15 15 16
6 10 6 3 3 8 13 13 12 10 10 11 13 17 14 15 14 15 15 14 13 14 12 14 16 19 17 19 19 19 20 20 19 20 22 23 21 18 17 16 15 15 14 14 15
7 13 6 3 10 11 13 11 10 10 9 11 11 12 13 14 15 15 14 13 12 12 15 14 16 20 19 17 17 18 19 19 21 21 21 21 20 18 17 16 15 15 14 15 15
9 10 6 4 14 13 12 12 10 11 10 11 12 11 12 14 15 13 14 12 12 12 14 14 17 19 19 19 19 19 19 19 19 20 21 21 20 17 18 17 15 15 15 15 16
9 13 10 9 9 11 12 11 12 9 9 10 11 10 12 13 14 14 14 13 12 12 9 10 16 17 18 19 19 20 19 18 18 21 21 20 19 18 17 17 16 16 15 15 15
9 14 11 17 12 11 11 11 12 12 9 8 11 10 12 15 15 15 14 14 12 11 11 12 16 17 17 18 19 19 19 18 19 18 19 18 19 16 16 17 17 16 15 15 15
10 12 9 16 12 12 11 13 12 11 10 11 11 10 9 12 11 15 13 14 13 13 14 13 16 18 17 18 19 20 19 19 19 18 18 18 19 15 17 18 18 16 14 15 14
7 7 9 11 11 15 15 14 13 11 9 8 9 10 11 9 8 9 9 10 10 12 14 15 17 18 20 21 18 19 17 18 20 18 17 19 15 16 17 17 16 16 14 13 13